"Pseudo-MPEC" for CELT0C2

Created 2026 May 11 22:35:06 UT using Find_Orb

Click here for an explanation of pseudo-MPECs

 
 Astrometry: 
     CELT0C2*1C2026 05 09.24970113 06 17.543+36 31 31.51   ~596o 20.68GVNEOCPG96
     CELT0C2 1C2026 05 09.25536913 06 14.504+36 32 31.60   ~596o 20.76GVNEOCPG96
     CELT0C2 1C2026 05 09.26102713 06 11.524+36 33 32.36   ~596o 20.98GVNEOCPG96
     CELT0C2 1C2026 05 09.26667913 06 08.550+36 34 31.91   ~596o       VNEOCPG96
     CELT0C2 1C2026 05 09.34747213 05 25.422+36 48 53.32   ~5995 20.59GVNEOCPI52
     CELT0C2 1C2026 05 09.34960313 05 24.306+36 49 15.92   ~5995 20.28GVNEOCPI52
     CELT0C2 1C2026 05 09.35173913 05 23.132+36 49 38.57   ~5995 20.69GVNEOCPI52
     CELT0C2 1C2026 05 09.35386813 05 21.995+36 50 01.03   ~5995 20.57GVNEOCPI52
     CELT0C2 KC2026 05 10.09699712 58 41.70 +39 06 27.2    ~5A35 20.5 GVNEOCPH21
     CELT0C2 KC2026 05 10.09988612 58 39.93 +39 06 59.7    ~5A35 20.8 GVNEOCPH21
     CELT0C2 KC2026 05 10.10277512 58 38.22 +39 07 32.8    ~5A35 20.7 GVNEOCPH21
     CELT0C2 KC2026 05 10.10479612 58 36.98 +39 07 55.6    ~5A35 21.0 GVNEOCPH21
     CELT0C2 1C2026 05 10.13570512 58 20.003+39 13 48.14   ~5A3o 20.60GVNEOCPI52
     CELT0C2 1C2026 05 10.13664412 58 19.520+39 13 58.55   ~5A3o 20.69GVNEOCPI52
     CELT0C2 1C2026 05 10.13758312 58 18.930+39 14 09.38   ~5A3o 20.57GVNEOCPI52
     CELT0C2 1C2026 05 10.13852512 58 18.340+39 14 19.97   ~5A3o 20.46GVNEOCPI52
     CELT0C2 KB2026 05 10.82292 12 51 16.58 +41 24 59.1    ~5AKZ 20.5 GXNEOCPM45
     CELT0C2 KB2026 05 10.83760 12 51 06.68 +41 27 49.9    ~5AKZ 20.6 GXNEOCPM45
     CELT0C2 KC2026 05 10.91388712 50 15.509+41 42 48.38   ~5AMK 20.67GXNEOCPM57
     CELT0C2 KC2026 05 10.91686012 50 13.510+41 43 22.69   ~5AMK 20.22GXNEOCPM57
     CELT0C2 KC2026 05 10.91973712 50 11.554+41 43 56.03   ~5AMK 20.46GXNEOCPM57
     CELT0C2 KB2026 05 10.99295 12 49 21.36 +41 57 54.6    ~5B0o 20.2 GXNEOCPL04
     CELT0C2 KB2026 05 11.01816 12 49 04.24 +42 02 47.5    ~5B0o 20.4 GXNEOCPL04
     CELT0C2 0C2026 05 11.03358912 48 54.866+42 05 52.04   ~5B1K 20.2 GWNEOCPJ95
     CELT0C2 0C2026 05 11.03966212 48 50.626+42 07 02.96   ~5B1K 20.6 GWNEOCPJ95
     CELT0C2 0C2026 05 11.04644612 48 45.982+42 08 22.16   ~5B1K 20.2 GWNEOCPJ95
     CELT0C2 0C2026 05 11.92349312 38 11.503+45 03 44.14   ~5BMZ 20.2 GWNEOCPJ95
     CELT0C2 0C2026 05 11.92894812 38 07.082+45 04 49.84   ~5BMZ 20.4 GWNEOCPJ95
     CELT0C2 0C2026 05 11.93438612 38 02.669+45 05 55.46   ~5BMZ 20.4 GWNEOCPJ95

Station data:
(G96) Mt. Lemmon Survey  (N32.442729 W110.788720)  US/Arizona.  Observer E.
   J. Christensen. Measurers T. Beuden, V. F. Carvajal, D. Fay, J. B.
   Fazekas, D. C. Fuls, A. R. Gibbs, A. D. Grauer, H. Gröller, J. K. Hogan,
   R. A. Kowalski, S. M. Larson, G. J. Leonard, D. Rankin, R. L. Seaman, F.
   C. Shelly, K. W. Wierzchoś. 1.5-m reflector + 10K CCD.
(H21) Astronomical Research Observatory, Westfield  (N39.483054 W87.968270)
   US/Illinois.  Observer R. Holmes. Measurers S. Foglia, L. Buzzi, T.
   Linder, R. Holmes. 0.40-m f/5.32 astrograph + CCD.
(I52) Steward Observatory, Mt. Lemmon Station  (N32.442570 W110.788920)
   US/Arizona. Measurers T. Beuden, V. F. Carvajal, D. Fay, J. B. Fazekas, D.
   C. Fuls, A. R. Gibbs, A. D. Grauer, H. Gröller, J. K. Hogan, R. A.
   Kowalski, S. M. Larson, G. J. Leonard, D. Rankin, R. L. Seaman, F. C.
   Shelly, K. W. Wierzchoś. 1.0-m prime focus + CCD.
(J95) Great Shefford  (N51.474969 W1.447003)  UK/England.  Observer P.
   Birtwhistle. 0.41-m f/6.3 Schmidt-Cassegrain + CCD.
(L04) ROASTERR-1 Observatory, Cluj-Napoca  (N46.820952 E23.596400)  Romania.
   Observer L. Hudin. 0.1-m f/9 refractor + CCD.
(M45) Starhopper Observatory, Sfantu Gheorghe  (N45.865494 E25.768890)
   Romania.  Observer F. Ursache. 0.41-m f/7.5 reflector + CMO.
(M57) Wide-field Mufara Telescope, Isnello  (N37.868879 E14.020200)  Italy.
   Observer A. Nastasi. 1.00-m f/2.1 reflector + CCD.

Orbital elements:  CELT0C2
   Perihelion 2026 Jun 29.750124 +/- 0.0749 TT = 18:00:10.7 (JD 2461221.250124)
Epoch 2026 May 11.0 TT = JDT 2461171.5   Earth MOID: 0.0689   Ju: 0.9002
M 348.017094475 +/- 0.20            Ve: 0.0358   Ma: 0.0608      AutoNEOCP
n   0.240861821 +/- 0.00383         Peri.  146.730182 +/- 0.10
a   2.558334955 +/- 0.0271          Node   162.543079 +/- 0.11
e   0.74098354 +/- 0.00315          Incl.    5.736705 +/- 0.029
P   4.09200                H 22.76  G  0.15   U  9.0
q 0.662650843 +/- 0.00104    Q 4.454019067 +/- 0.0553     (J2000 ecliptic)
From 29 observations 2026 May 9-11; mean residual 0".30
Residuals in arcseconds: 
260509 G96  .25-  .47+    260510 H21  .13+  .17+    260510 M57  .23+  .29-    
260509 G96  .51-  .01+    260510 H21  .15-  .12+    260510 L04  .10+  .07+    
260509 G96  .11-  .34+    260510 I52  .42-  .04-    260511 L04  .39+  .66+    
260509 G96  .35+  .45-    260510 I52  .57+  .30-    260511 J95  .47+  .20-    
260509 I52  .10-  .08-    260510 I52  .31+  .14-    260511 J95  .29-  .02-    
260509 I52  .13+  .16-    260510 I52  .08+  .26-    260511 J95  .11-  .17+    
260509 I52  .30-  .25-    260510 M45  .31+  .75+    260511 J95  .17+  .42+    
260509 I52  .34-  .44-    260510 M45  .18+  .33+    260511 J95  .05-  .10-    
260510 H21  .22+  .10-    260510 M57  .35-  .15+    260511 J95  .30-  .47-    
260510 H21  .18-  .27-    260510 M57  .06+  .14-    

Ephemerides (geocentric):
Date (UTC) HH   RA             Dec           delta  r     elong  mag " sig PA
---- --------  ------------   ------------  ------ ------ -----  --- --------
2026 05 11 23  12 37 44.858   +45 10 55.67  .13608 1.0591 107.6 20.9 .083  55
2026 05 12 00  12 37 11.932   +45 19 23.69  .13590 1.0586 107.4 20.9 .083  55
2026 05 12 01  12 36 38.761   +45 27 52.36  .13573 1.0582 107.2 20.9 .083  55
2026 05 12 02  12 36 05.344   +45 36 21.65  .13555 1.0577 107.0 20.9 .083  55
2026 05 12 03  12 35 31.677   +45 44 51.55  .13538 1.0572 106.8 20.9 .083  55
2026 05 12 04  12 34 57.759   +45 53 22.05  .13521 1.0567 106.6 20.9 .083  55
2026 05 12 05  12 34 23.586   +46 01 53.13  .13504 1.0562 106.4 20.9 .083  55
2026 05 12 06  12 33 49.156   +46 10 24.79  .13487 1.0557 106.2 20.9 .084  55
2026 05 12 07  12 33 14.467   +46 18 56.99  .13470 1.0552 106.0 20.9 .084  56
2026 05 12 08  12 32 39.515   +46 27 29.73  .13454 1.0547 105.8 20.9 .084  56
2026 05 12 09  12 32 04.299   +46 36 03.00  .13437 1.0542 105.6 20.9 .084  56
2026 05 12 10  12 31 28.816   +46 44 36.77  .13421 1.0537 105.4 20.9 .084  56
2026 05 12 11  12 30 53.063   +46 53 11.03  .13404 1.0533 105.2 20.9 .084  56
2026 05 12 12  12 30 17.037   +47 01 45.77  .13388 1.0528 105.0 20.9 .084  56
2026 05 12 13  12 29 40.736   +47 10 20.96  .13372 1.0523 104.8 20.9 .084  56
2026 05 12 14  12 29 04.156   +47 18 56.59  .13356 1.0518 104.6 20.9 .084  56
2026 05 12 15  12 28 27.296   +47 27 32.65  .13340 1.0513 104.4 20.9 .084  57
2026 05 12 16  12 27 50.152   +47 36 09.11  .13325 1.0508 104.2 20.9 .084  57
2026 05 12 17  12 27 12.721   +47 44 45.97  .13309 1.0503 104.0 20.9 .084  57
2026 05 12 18  12 26 35.001   +47 53 23.19  .13294 1.0498 103.7 20.9 .084  57
2026 05 12 19  12 25 56.988   +48 02 00.76  .13279 1.0493 103.5 20.9 .084  57
2026 05 12 20  12 25 18.681   +48 10 38.67  .13263 1.0488 103.3 20.9 .084  57
2026 05 12 21  12 24 40.075   +48 19 16.89  .13248 1.0483 103.1 20.9 .084  57
2026 05 12 22  12 24 01.168   +48 27 55.41  .13233 1.0479 102.9 20.9 .083  57
2026 05 12 23  12 23 21.956   +48 36 34.21  .13219 1.0474 102.7 20.9 .083  57
2026 05 13 00  12 22 42.438   +48 45 13.26  .13204 1.0469 102.5 20.9 .083  57
2026 05 13 01  12 22 02.609   +48 53 52.55  .13189 1.0464 102.3 20.9 .083  57
2026 05 13 02  12 21 22.467   +49 02 32.05  .13175 1.0459 102.1 20.9 .083  57
2026 05 13 03  12 20 42.008   +49 11 11.75  .13161 1.0454 101.9 20.9 .083  57
2026 05 13 04  12 20 01.229   +49 19 51.62  .13147 1.0449 101.7 20.9 .082  57
2026 05 13 05  12 19 20.128   +49 28 31.65  .13132 1.0444 101.5 20.9 .082  57
2026 05 13 06  12 18 38.700   +49 37 11.80  .13119 1.0439 101.3 21.0 .082  57
2026 05 13 07  12 17 56.943   +49 45 52.07  .13105 1.0435 101.0 21.0 .082  57
2026 05 13 08  12 17 14.854   +49 54 32.42  .13091 1.0430 100.8 21.0 .081  57
2026 05 13 09  12 16 32.428   +50 03 12.84  .13078 1.0425 100.6 21.0 .081  57
2026 05 13 10  12 15 49.663   +50 11 53.30  .13064 1.0420 100.4 21.0 .081  57
2026 05 13 11  12 15 06.556   +50 20 33.78  .13051 1.0415 100.2 21.0 .080  57
2026 05 13 12  12 14 23.103   +50 29 14.26  .13038 1.0410 100.0 21.0 .080  57
2026 05 13 13  12 13 39.300   +50 37 54.70  .13025 1.0405  99.8 21.0 .080  57
2026 05 13 14  12 12 55.144   +50 46 35.10  .13012 1.0400  99.6 21.0 .079  57
2026 05 13 15  12 12 10.632   +50 55 15.41  .12999 1.0395  99.4 21.0 .079  56
2026 05 13 16  12 11 25.760   +51 03 55.62  .12987 1.0391  99.1 21.0 .078  56
2026 05 13 17  12 10 40.524   +51 12 35.71  .12974 1.0386  98.9 21.0 .078  56
2026 05 13 18  12 09 54.922   +51 21 15.64  .12962 1.0381  98.7 21.0 .077  56
2026 05 13 19  12 09 08.949   +51 29 55.39  .12950 1.0376  98.5 21.0 .077  56
2026 05 13 20  12 08 22.602   +51 38 34.94  .12938 1.0371  98.3 21.0 .076  55
2026 05 13 21  12 07 35.877   +51 47 14.25  .12926 1.0366  98.1 21.0 .076  55
2026 05 13 22  12 06 48.770   +51 55 53.31  .12914 1.0361  97.9 21.0 .075  55